Home   Weather   Langley   Past weeks

Flag for Canada Past Weather in Langley, British Columbia, Canada — Yesterday and Last 2 Weeks

Now
48 °F

Cool.


Feels Like: 48 °F
Forecast: 47 / 69 °F
Wind: 1 mph from Northeast

Location: P. Meadows Coastal Station

Current Time: Sep 28, 2016 at 6:53:01 AM

Latest Report: Sep 28, 2016 at 6:00 AM


Visibility: N/A

Pressure: 30.12 "Hg

Humidity: 96%

Dew Point: 47 °F

Location of LangleyLocation

Past Weather in Langley — Graph

°F

Langley Temperature Yesterday

Maximum temperature yesterday: 68 °F (at 4:00 PM)
Minimum temperature yesterday: 51 °F (at 11:00 PM)
Average temperature yesterday: 59 °F

High & Low Weather Summary for the Past Weeks

 TemperatureHumidityPressure
High77 °F (Sep 13, 4:00 PM)99% (Sep 19, 9:00 AM)30.44 "Hg (Sep 19, 9:00 AM)
Low44 °F (Sep 21, 7:00 AM)32% (Sep 13, 3:00 PM)29.81 "Hg (Sep 17, 12:00 PM)
Average58 °F79%30.09 "Hg
* Reported Sep 13 5:00 AM — Sep 28 5:00 AM, Langley, Weather by CustomWeather, © 2016

Note: Actual official high and low records may vary slightly from our data, if they occured in-between our weather recording intervals... More about our weather records

Advertising

Langley Weather History for the Previous 24 Hours

Scroll right to see more
 ConditionsComfort  
Time TempWeatherWind HumidityBarometerVisibility
5:00 AM
Wed, Sep 28
48 °FCool.1 mph95%30.12 "HgN/A
4:00 AM48 °FCool.No wind94%30.12 "HgN/A
3:00 AM49 °FCool.No wind88%30.13 "HgN/A
2:00 AM49 °FCool.No wind94%30.14 "HgN/A
1:00 AM50 °FCool.No wind94%30.14 "HgN/A
12:00 AM50 °FCool.1 mph94%30.14 "HgN/A
11:00 PM
Tue, Sep 27
51 °FCool.No wind93%30.14 "HgN/A
10:00 PM53 °FCool.No wind89%30.14 "HgN/A
9:00 PM55 °FCool.1 mph88%30.15 "HgN/A
8:00 PM57 °FCool.No wind83%30.15 "HgN/A
7:00 PM61 °FCool.2 mph70%30.14 "HgN/A
6:00 PM63 °FMild.6 mph68%30.15 "HgN/A
5:00 PM66 °FMild.7 mph62%30.16 "HgN/A
4:00 PM68 °FMild.3 mph57%30.16 "HgN/A
3:00 PM67 °FMild.1 mph56%30.18 "HgN/A
2:00 PM65 °FMild.3 mph62%30.19 "HgN/A
1:00 PM63 °FMild.2 mph63%30.20 "HgN/A
12:00 PM63 °FMild.5 mph67%30.22 "HgN/A
11:00 AM61 °FCool.6 mph70%30.22 "HgN/A
10:00 AM60 °FCool.6 mph72%30.21 "HgN/A
9:00 AM57 °FCool.3 mph75%30.20 "HgN/A
8:00 AM53 °FCool.3 mph86%30.18 "HgN/A
7:00 AM51 °FCool.5 mph88%30.16 "HgN/A
6:00 AM54 °FCool.3 mph85%30.15 "HgN/A
Weather by CustomWeather, © 2016

See weather overviewHow to use our weather pages